When you browse on this site, cookies collect data to enhance your experience and personalize the content and advertising you see.
Visit our Privacy Policy to learn more. By continuing to use the site, you agree to this use of cookies and data.
  • In Netherlands
  • List of Countries
  • For 7 days
  • Water Temperature
  • Satellite Maps
  • Weather Map
  • Weather Widgets
  • user-avatar
    Login

    Hourly Weather Baku

    Today, 16 January, Wednesday

    Time Temperature Precipitation Wind Pressure Humidity
    00:00 +11°C° 0 mm 11 mps 755 mmHg 35%
    01:00 +11°C° 0 mm 11 mps 755 mmHg 36%
    02:00 +11°C° 0 mm 11 mps 755 mmHg 37%
    03:00 +11°C° 0 mm 11 mps 754 mmHg 36%
    04:00 +9°C° 0 mm 11 mps 753 mmHg 38%
    05:00 +9°C° 0 mm 11 mps 753 mmHg 39%
    06:00 +8°C° 0 mm 11 mps 753 mmHg 41%
    07:00 +9°C° 0 mm 11 mps 753 mmHg 39%
    08:00 +9°C° 0 mm 11 mps 753 mmHg 37%
    09:00 +10°C° 0 mm 12 mps 752 mmHg 34%
    10:00 +12°C° 0 mm 12 mps 752 mmHg 32%
    11:00 +14°C° 0 mm 12 mps 752 mmHg 30%
    12:00 +15°C° 0 mm 13 mps 752 mmHg 28%
    13:00 +15°C° 0 mm 12 mps 752 mmHg 27%
    14:00 +15°C° 0 mm 12 mps 752 mmHg 26%
    15:00 +17°C° 0 mm 11 mps 751 mmHg 26%
    16:00 +16°C° 0 mm 11 mps 751 mmHg 27%
    17:00 +14°C° 0 mm 10 mps 751 mmHg 29%
    18:00 +13°C° 0 mm 10 mps 751 mmHg 30%
    19:00 +13°C° 0 mm 9 mps 751 mmHg 30%
    20:00 +12°C° 0 mm 7 mps 752 mmHg 31%
    21:00 +13°C° 0 mm 6 mps 752 mmHg 31%
    22:00 +10°C° 0 mm 8 mps 752 mmHg 47%
    23:00 +8°C° 0 mm 10 mps 753 mmHg 63%

    Tomorrow, 17 January, Thursday

    Time Temperature Precipitation Wind Pressure Humidity
    00:00 +5°C° 0 mm 12 mps 753 mmHg 79%
    01:00 +4°C° 0 mm 13 mps 754 mmHg 79%
    02:00 +4°C° 0 mm 14 mps 754 mmHg 79%
    03:00 +2°C° 0 mm 15 mps 754 mmHg 80%
    04:00 +2°C° 0.5 mm 15 mps 755 mmHg 80%
    05:00 +2°C° 0.5 mm 15 mps 755 mmHg 79%
    06:00 +1°C° 0.5 mm 16 mps 756 mmHg 79%
    07:00 +1°C° 0.4 mm 16 mps 756 mmHg 78%
    08:00 +1°C° 0.4 mm 17 mps 757 mmHg 77%
    09:00 +1°C° 0.4 mm 17 mps 757 mmHg 75%
    10:00 +1°C° 0.5 mm 18 mps 757 mmHg 75%
    11:00 +1°C° 0.5 mm 18 mps 757 mmHg 75%
    12:00 +1°C° 0.5 mm 18 mps 757 mmHg 74%
    13:00 -1°C° 0.9 mm 18 mps 757 mmHg 75%
    14:00 -1°C° 0.9 mm 18 mps 758 mmHg 77%
    15:00 -1°C° 0.9 mm 18 mps 758 mmHg 78%
    16:00 -1°C° 0.1 mm 19 mps 759 mmHg 77%
    17:00 -1°C° 0.1 mm 19 mps 759 mmHg 76%
    18:00 -1°C° 0.1 mm 19 mps 760 mmHg 75%
    19:00 -1°C° 0 mm 19 mps 760 mmHg 74%
    20:00 -1°C° 0 mm 19 mps 761 mmHg 74%
    21:00 -1°C° 0 mm 19 mps 761 mmHg 73%
    22:00 -1°C° 0 mm 18 mps 762 mmHg 72%
    23:00 -1°C° 0 mm 18 mps 762 mmHg 70%

    Day after tomorrow, 18 January, Friday

    Time Temperature Precipitation Wind Pressure Humidity
    00:00 0°C° 0 mm 17 mps 762 mmHg 69%
    01:00 0°C° 0 mm 17 mps 763 mmHg 68%
    02:00 0°C° 0 mm 16 mps 763 mmHg 66%
    03:00 0°C° 0 mm 16 mps 764 mmHg 65%
    04:00 0°C° 0 mm 15 mps 764 mmHg 64%
    05:00 0°C° 0 mm 15 mps 764 mmHg 63%
    06:00 0°C° 0 mm 14 mps 765 mmHg 62%
    07:00 0°C° 0 mm 13 mps 765 mmHg 61%
    08:00 0°C° 0 mm 13 mps 766 mmHg 60%
    09:00 0°C° 0 mm 12 mps 766 mmHg 59%
    10:00 +2°C° 0 mm 12 mps 766 mmHg 57%
    11:00 +2°C° 0 mm 11 mps 766 mmHg 56%
    12:00 +3°C° 0 mm 10 mps 766 mmHg 55%
    13:00 +3°C° 0 mm 10 mps 766 mmHg 55%
    14:00 +3°C° 0 mm 9 mps 766 mmHg 55%
    15:00 +3°C° 0 mm 9 mps 767 mmHg 56%
    16:00 +2°C° 0 mm 8 mps 767 mmHg 57%
    17:00 +2°C° 0 mm 8 mps 767 mmHg 59%
    18:00 +3°C° 0 mm 7 mps 767 mmHg 61%
    19:00 +3°C° 0 mm 7 mps 767 mmHg 61%
    20:00 +3°C° 0 mm 6 mps 767 mmHg 62%
    21:00 +3°C° 0 mm 5 mps 767 mmHg 63%
    22:00 +4°C° 0 mm 4 mps 767 mmHg 64%
    23:00 +4°C° 0 mm 4 mps 767 mmHg 65%

    19 January, Saturday

    Time Temperature Precipitation Wind Pressure Humidity
    00:00 +4°C° 0 mm 3 mps 767 mmHg 66%
    01:00 +4°C° 0 mm 3 mps 767 mmHg 68%
    02:00 +4°C° 0 mm 2 mps 766 mmHg 71%
    03:00 +4°C° 0 mm 2 mps 766 mmHg 73%
    04:00 +4°C° 0 mm 2 mps 766 mmHg 74%
    05:00 +5°C° 0 mm 1 mps 766 mmHg 75%
    06:00 +5°C° 0 mm 1 mps 766 mmHg 76%
    07:00 +5°C° 0 mm 2 mps 766 mmHg 72%
    08:00 +5°C° 0 mm 2 mps 766 mmHg 69%
    09:00 +5°C° 0 mm 2 mps 766 mmHg 66%
    10:00 +6°C° 0 mm 2 mps 766 mmHg 63%
    11:00 +7°C° 0 mm 1 mps 766 mmHg 60%
    12:00 +7°C° 0 mm 1 mps 765 mmHg 57%
    13:00 +7°C° 0 mm 1 mps 765 mmHg 56%
    14:00 +8°C° 0 mm 1 mps 765 mmHg 55%
    15:00 +8°C° 0 mm 1 mps 765 mmHg 54%
    16:00 +8°C° 0 mm 1 mps 765 mmHg 56%
    17:00 +7°C° 0 mm 1 mps 765 mmHg 57%
    18:00 +7°C° 0 mm 1 mps 765 mmHg 59%
    19:00 +7°C° 0 mm 1 mps 766 mmHg 60%
    20:00 +7°C° 0 mm 1 mps 766 mmHg 62%
    21:00 +5°C° 0 mm 0 mps 766 mmHg 64%
    22:00 +6°C° 0 mm 1 mps 766 mmHg 65%
    23:00 +6°C° 0 mm 1 mps 766 mmHg 66%

    20 January, Sunday

    Time Temperature Precipitation Wind Pressure Humidity
    00:00 +6°C° 0 mm 1 mps 766 mmHg 68%
    01:00 +6°C° 0 mm 1 mps 766 mmHg 69%
    02:00 +5°C° 0 mm 2 mps 766 mmHg 71%
    03:00 +5°C° 0 mm 2 mps 766 mmHg 72%
    04:00 +5°C° 0 mm 2 mps 766 mmHg 72%
    05:00 +5°C° 0 mm 2 mps 767 mmHg 72%
    06:00 +5°C° 0 mm 2 mps 767 mmHg 72%
    07:00 +6°C° 0 mm 2 mps 767 mmHg 68%
    08:00 +6°C° 0 mm 2 mps 767 mmHg 65%
    09:00 +7°C° 0 mm 2 mps 768 mmHg 61%
    10:00 +8°C° 0 mm 3 mps 768 mmHg 57%
    11:00 +8°C° 0 mm 3 mps 767 mmHg 52%
    12:00 +9°C° 0 mm 3 mps 767 mmHg 48%
    13:00 +9°C° 0 mm 3 mps 767 mmHg 47%
    14:00 +9°C° 0 mm 3 mps 767 mmHg 47%
    15:00 +10°C° 0 mm 3 mps 767 mmHg 47%
    16:00 +9°C° 0 mm 3 mps 767 mmHg 51%
    17:00 +9°C° 0 mm 3 mps 767 mmHg 55%
    18:00 +8°C° 0 mm 3 mps 768 mmHg 59%
    19:00 +8°C° 0 mm 3 mps 768 mmHg 61%
    20:00 +8°C° 0 mm 3 mps 768 mmHg 64%
    21:00 +8°C° 0 mm 3 mps 768 mmHg 66%
    22:00 +7°C° 0 mm 3 mps 768 mmHg 68%
    23:00 +7°C° 0 mm 3 mps 768 mmHg 70%

    21 January, Monday

    Time Temperature Precipitation Wind Pressure Humidity
    00:00 +7°C° 0 mm 3 mps 768 mmHg 72%
    01:00 +7°C° 0 mm 3 mps 768 mmHg 73%
    02:00 +7°C° 0 mm 3 mps 768 mmHg 74%
    03:00 +7°C° 0 mm 3 mps 768 mmHg 75%
    04:00 +7°C° 0 mm 3 mps 768 mmHg 75%
    05:00 +7°C° 0 mm 3 mps 768 mmHg 75%
    06:00 +6°C° 0 mm 4 mps 768 mmHg 76%
    07:00 +6°C° 0 mm 4 mps 768 mmHg 73%
    08:00 +7°C° 0 mm 4 mps 768 mmHg 70%
    09:00 +7°C° 0 mm 5 mps 768 mmHg 68%
    10:00 +8°C° 0 mm 5 mps 768 mmHg 65%
    11:00 +8°C° 0 mm 6 mps 767 mmHg 63%
    12:00 +9°C° 0 mm 6 mps 766 mmHg 60%
    13:00 +9°C° 0 mm 6 mps 766 mmHg 60%
    14:00 +9°C° 0 mm 6 mps 766 mmHg 60%
    15:00 +9°C° 0 mm 6 mps 765 mmHg 60%
    16:00 +9°C° 0 mm 6 mps 765 mmHg 63%
    17:00 +8°C° 0 mm 6 mps 765 mmHg 66%
    18:00 +8°C° 0 mm 6 mps 765 mmHg 70%
    19:00 +7°C° 0 mm 6 mps 765 mmHg 70%
    20:00 +7°C° 0 mm 6 mps 765 mmHg 71%
    21:00 +7°C° 0 mm 6 mps 765 mmHg 71%
    22:00 +7°C° 0 mm 6 mps 764 mmHg 68%
    23:00 +7°C° 0 mm 6 mps 764 mmHg 65%
    Show more